This is the latest recevied weather packets stored in our database for station/object ON7SD-5. If no packets are shown the sender has not sent any weather packets the latest 1 day(s).
| Time | Temp. | Humidity | Pressure | Rain* | Wind** | Luminosity | Snow |
|---|---|---|---|---|---|---|---|
| 1777989126 | 13.89° C | 79% | 1008.5 hPa | 0 mm | 0.89 m/s, 67° | 390 W/m² | - |
| 1777988826 | 13.89° C | 81% | 1008.5 hPa | 0 mm | 0.45 m/s, 70° | 323 W/m² | - |
| 1777988526 | 13.89° C | 81% | 1008.5 hPa | 0 mm | 0.89 m/s, 70° | 125 W/m² | - |
| 1777988226 | 13.89° C | 81% | 1008.7 hPa | 0 mm | 0.89 m/s, 70° | 155 W/m² | - |
| 1777987926 | 13.33° C | 83% | 1008.7 hPa | 0 mm | 1.79 m/s, 77° | 216 W/m² | - |
| 1777987626 | 13.33° C | 83% | 1008.8 hPa | 0 mm | 1.79 m/s, 76° | 221 W/m² | - |
| 1777987326 | 13.33° C | 83% | 1008.9 hPa | 0 mm | 1.34 m/s, 78° | 181 W/m² | - |
| 1777987026 | 13.33° C | 83% | 1008.9 hPa | 0 mm | 1.34 m/s, 79° | 137 W/m² | - |
| 1777986726 | 13.33° C | 83% | 1008.9 hPa | 0 mm | 1.34 m/s, 73° | 125 W/m² | - |
| 1777986426 | 13.33° C | 83% | 1009 hPa | 0 mm | 1.34 m/s, 74° | 156 W/m² | - |
| 1777986126 | 13.33° C | 83% | 1009 hPa | 0 mm | 0.89 m/s, 74° | 149 W/m² | - |
| 1777985826 | 13.33° C | 83% | 1009 hPa | 0 mm | 0.89 m/s, 72° | 113 W/m² | - |
| 1777985527 | 13.33° C | 83% | 1009 hPa | 0 mm | 0.89 m/s, 71° | 135 W/m² | - |
| 1777985226 | 13.33° C | 83% | 1009.1 hPa | 0 mm | 1.79 m/s, 71° | 97 W/m² | - |
| 1777984926 | 13.33° C | 82% | 1009.1 hPa | 0 mm | 1.79 m/s, 72° | 130 W/m² | - |
| 1777984627 | 13.33° C | 82% | 1009.1 hPa | 0 mm | 1.34 m/s, 81° | 139 W/m² | - |
| 1777984326 | 13.33° C | 82% | 1009.1 hPa | 0 mm | 1.34 m/s, 82° | 114 W/m² | - |
| 1777984026 | 13.33° C | 83% | 1009.1 hPa | 0 mm | 1.34 m/s, 78° | 163 W/m² | - |
| 1777983727 | 13.33° C | 81% | 1009.1 hPa | 0 mm | 0.89 m/s, 78° | 148 W/m² | - |
| 1777983427 | 13.33° C | 82% | 1009.2 hPa | 0 mm | 1.34 m/s, 80° | 127 W/m² | - |
| 1777983127 | 13.33° C | 82% | 1009.1 hPa | 0 mm | 1.34 m/s, 74° | 181 W/m² | - |
| 1777982827 | 13.33° C | 82% | 1009.1 hPa | 0 mm | 0.89 m/s, 71° | 176 W/m² | - |
| 1777982527 | 13.33° C | 82% | 1009.1 hPa | 0 mm | 0.89 m/s, 71° | 197 W/m² | - |
| 1777982227 | 13.33° C | 83% | 1009.1 hPa | 0 mm | 0.89 m/s, 71° | 211 W/m² | - |
| 1777981927 | 13.33° C | 83% | 1009.1 hPa | 0 mm | 0.89 m/s, 71° | 190 W/m² | - |
* Rain latest hour (hover to see other rain measurements)
** Current wind speed in m/s (hover to see current wind gust speed)